This is the latest recevied weather packets stored in our database for station/object KD8JAM. If no packets are shown the sender has not sent any weather packets the latest 10 day(s).
| Time | Temp. | Humidity | Pressure | Rain* | Wind** | Luminosity | Snow |
|---|---|---|---|---|---|---|---|
| 1777411009 | 6.11° C | 88% | 1011.8 hPa | 0 mm | - | 278 W/m² | - |
| 1777410703 | 6.11° C | 88% | 1011.5 hPa | 0 mm | - | 348 W/m² | - |
| 1777410399 | 5.56° C | 90% | 1011.2 hPa | 0 mm | - | 526 W/m² | - |
| 1777410097 | 5° C | 91% | 1011.1 hPa | 0 mm | - | 283 W/m² | - |
| 1777409792 | 5° C | 91% | 1011.2 hPa | 0 mm | - | 246 W/m² | - |
| 1777409488 | 5° C | 91% | 1010.8 hPa | 0 mm | - | 250 W/m² | - |
| 1777409184 | 5.56° C | 90% | 1010.7 hPa | 0 mm | - | 294 W/m² | - |
| 1777408881 | 5.56° C | 90% | 1010.6 hPa | 0 mm | - | 362 W/m² | - |
| 1777408577 | 5.56° C | 90% | 1010.4 hPa | 0 mm | - | 505 W/m² | - |
| 1777408272 | 5.56° C | 90% | 1010.4 hPa | 0 mm | - | 465 W/m² | - |
| 1777407972 | 5° C | 92% | 1010.2 hPa | 0 mm | - | 710 W/m² | - |
| 1777407670 | 5° C | 92% | 1010.4 hPa | 0 mm | - | 351 W/m² | - |
| 1777407364 | 5° C | 91% | 1010.3 hPa | 0 mm | - | 400 W/m² | - |
| 1777407059 | 5° C | 92% | 1010.2 hPa | 0 mm | - | 307 W/m² | - |
| 1777406755 | 5° C | 91% | 1009.9 hPa | 0 mm | - | 309 W/m² | - |
| 1777406449 | 5.56° C | 91% | 1010.4 hPa | 0 mm | - | 383 W/m² | - |
| 1777406144 | 5° C | 90% | 1009.6 hPa | 0 mm | - | 365 W/m² | - |
| 1777405840 | 5° C | 90% | 1009.5 hPa | 0 mm | - | 411 W/m² | - |
| 1777405536 | 5° C | 91% | 1009.6 hPa | 0 mm | - | 383 W/m² | - |
| 1777405234 | 5° C | 91% | 1009.5 hPa | 0 mm | - | 405 W/m² | - |
| 1777404931 | 5° C | 92% | 1009.5 hPa | 0 mm | - | 437 W/m² | - |
| 1777404628 | 5° C | 92% | 1009.4 hPa | 0 mm | - | 427 W/m² | - |
| 1777404324 | 5° C | 93% | 1009 hPa | 0 mm | - | 436 W/m² | - |
| 1777404021 | 5° C | 92% | 1009.1 hPa | 0 mm | - | 385 W/m² | - |
| 1777403717 | 5° C | 93% | 1009.1 hPa | 0 mm | - | 450 W/m² | - |
* Rain latest hour (hover to see other rain measurements)
** Current wind speed in m/s (hover to see current wind gust speed)